Flag for U.S.A. Weather past 2 weeks in Burbank, California, U.S.A.

Now
51 °F

Rain. Fog.


Feels Like: 47 °F
Forecast: 48 / 60 °F
Wind: 12 mph from East

Location: Burbank-Glendale-Pasadena Airport

Current Time: Feb 28, 2015 at 11:17:10 PM

Latest Report: Feb 28, 2015 at 9:53 PM


Visibility: 6 mi

Pressure: 29.88 "Hg

Humidity: 86%

Dew point: 47 °F

Location of BurbankLocation

Historic Weather in Burbank — Graph

°F

Burbank temperature yesterday

Maximum temperature yesterday: 62 °F (at 1:53 PM)
Minimum temperature yesterday: 53 °F (at 4:53 AM)
Average temperature yesterday: 57 °F

Past Weeks' High & Low Weather Summary

 TemperatureHumidityPressure
High84 °F (Feb 14, 1:53 PM)100% (Feb 18, 6:55 AM)30.21 "Hg (Feb 18, 6:55 AM)
Low43 °F (Feb 24, 3:53 AM)11% (Feb 14, 2:53 PM)29.71 "Hg (Feb 27, 11:53 PM)
Average60 °F62%29.96 "Hg
* Reported Feb 13 9:53 PM — Feb 28 9:53 PM, Burbank, Weather by CustomWeather, © 2015

Note: Actual official high and low records may vary slightly from our data, if they occured in-between our weather recording intervals... More about our weather records

Advertising

Burbank weather history for previous 24 hours

 ConditionsComfort  
Time TempWeatherWind HumidityBarometerVisibility
9:53 PM
Sat, Feb 28
51 °FRain. Fog.12 mph86%29.88 "Hg6 mi
8:53 PM54 °FLight rain. Mostly cloudy.3 mph69%29.86 "Hg10 mi
7:53 PM55 °FMostly cloudy.6 mph69%29.85 "Hg10 mi
6:53 PM56 °FMostly cloudy.7 mph65%29.84 "Hg10 mi
5:53 PM56 °FPassing clouds.8 mph65%29.83 "Hg10 mi
4:53 PM58 °FOvercast.10 mph60%29.81 "Hg10 mi
3:53 PM58 °FSunny.14 mph58%29.80 "Hg10 mi
2:53 PM60 °FScattered clouds.14 mph52%29.79 "Hg10 mi
1:53 PM59 °FMostly cloudy.13 mph51%29.78 "Hg10 mi
12:53 PM59 °FLight rain. Partly sunny.13 mph49%29.80 "Hg10 mi
11:53 AM60 °FScattered clouds.7 mph47%29.82 "Hg10 mi
10:53 AM59 °FBroken clouds.9 mph54%29.83 "Hg10 mi
9:53 AM56 °FSunny.6 mph65%29.82 "Hg10 mi
8:53 AM55 °FMostly cloudy.5 mph64%29.80 "Hg10 mi
7:53 AM54 °FPartly sunny.No wind62%29.80 "Hg10 mi
6:53 AM53 °FOvercast.No wind66%29.76 "Hg10 mi
5:53 AM53 °FOvercast.3 mph66%29.75 "Hg10 mi
4:53 AM54 °FOvercast.6 mph69%29.73 "Hg10 mi
3:53 AM54 °FOvercast.6 mph72%29.72 "Hg10 mi
2:53 AM55 °FMostly cloudy.5 mph74%29.72 "Hg10 mi
1:53 AM56 °FOvercast.3 mph77%29.72 "Hg10 mi
1:03 AM55 °FMostly cloudy.9 mph77%29.74 "Hg10 mi
12:53 AM56 °FOvercast.7 mph77%29.72 "Hg10 mi
11:53 PM
Fri, Feb 27
56 °FMostly cloudy.13 mph77%29.71 "Hg10 mi
Weather by CustomWeather, © 2015

See weather overviewHow to use our weather pages